Location: St. Louis
(38.6270°N, 90.1994°W)
Time: 20:21:30
(UTC-06:00)

Vanguard 1 - Pass Details

Date: 01 December 2021
Orbit: 652 x 3830 km, 34.2° (Epoch: 21 January)

Event Time Altitude Azimuth Distance (km) Brightness Sun altitude
Exits shadow 00:42:58 30° 90° (E) 4,845 13.4 -69.7°
Drops below altitude 10° 00:49:38 10° 82° (E) 5,854 14.1 -68.9°
Sets 00:53:27 0° 79° (E) 6,542 14.5 -68.4°
